Location: ????
(30.2663°N, 31.2484°E)
Time: 11:44:33
(UTC+00:00)

Gbstr 26 Del rocket - Pass Details

Date: 27 September 2022
Orbit: 491 x 1258 km, 51.8° (Epoch: 26 November)

Event Time Altitude Azimuth Distance (km) Brightness Sun altitude
Exits shadow 01:26:05 81° 124° (SE) 997 3.9 -30.6°
Drops below altitude 10° 01:31:40 10° 137° (SE) 2,475 6.4 -29.5°
Sets 01:33:55 0° 137° (SE) 3,296 7.1 -29.0°
